Weather History for KMJQ - October, 2012

Change the Weather History Date:

Tuesday, October 9, 2012

  Actual Average Record
Temperature  
Mean Temperature 41 °F -  
Max Temperature 50 °F 61 °F 82 °F (2010)
Min Temperature 32 °F 39 °F 24 °F (2000)
Degree Days  
Heating Degree Days 24    
Moisture  
Dew Point 34 °F    
Average Humidity 66    
Maximum Humidity 87    
Minimum Humidity 40    
Precipitation  
Precipitation 0.02 in - - ()
Sea Level Pressure  
Sea Level Pressure 29.89 in    
Wind  
Wind Speed 11 mph (West)    
Max Wind Speed 29 mph    
Max Gust Speed 36 mph    
Visibility 10 miles    
Events Rain    
Averages and records for this station are not official NWS values.
T = Trace of Precipitation, MM = Missing Value Source: NWS Daily Summary

Daily Weather History Graph

Daily Weather History Graph

Search for Another Location

Airport or City:

Trip Planner

Search our weather history database for the weather conditions in past years. The results will help you decide how hot, cold, wet, or windy it might be!

Date:

Astronomy

Oct. 09, 2012 Rise Set
Actual Time 7:27 AM CDT 6:45 PM CDT
Civil Twilight 6:58 AM CDT 7:14 PM CDT
Nautical Twilight 6:25 AM CDT 7:47 PM CDT
Astronomical Twilight 5:52 AM CDT 8:20 PM CDT
Moon 12:54 AM CDT (10/9) 3:23 PM CDT (10/9)
Length of Visible Light 12h 15m
Length of Day
11h 18m
Last Quarter, 36% of the Moon is Illuminated
Oct 9
Last Quarter
Oct 15
New
Oct 21
First Quarter
Oct 29
Full
Nov 6
Last Quarter

Hourly Weather History & Observations

Time (CDT) Temp. Windchill Dew Point Humidity Pressure Visibility Wind Dir Wind Speed Gust Speed Precip Events Conditions
12:14 AM 50.0 °F - 44.6 °F 82% 29.78 in 10.0 mi SW 3.5 mph - N/A   Overcast
12:33 AM 50.0 °F - 44.6 °F 82% 29.78 in 10.0 mi SSW 5.8 mph - N/A   Overcast
12:53 AM 50.0 °F - 44.6 °F 82% 29.77 in 10.0 mi SSW 5.8 mph - N/A   Light Drizzle
1:14 AM 50.0 °F - 44.6 °F 82% 29.76 in 10.0 mi SSW 4.6 mph - N/A   Overcast
1:33 AM 50.0 °F - 44.6 °F 82% 29.77 in 10.0 mi SW 5.8 mph - N/A   Overcast
1:53 AM 50.0 °F - 44.6 °F 82% 29.78 in 10.0 mi SW 11.5 mph 16.1 mph N/A   Drizzle
2:14 AM 50.0 °F - 44.6 °F 82% 29.79 in 10.0 mi WSW 9.2 mph - N/A   Light Drizzle
3:13 AM 50.0 °F - 44.6 °F 82% 29.78 in 10.0 mi WSW 6.9 mph - N/A   Overcast
3:33 AM 50.0 °F - 44.6 °F 82% 29.77 in 10.0 mi WSW 6.9 mph - N/A   Overcast
3:54 AM 50.0 °F - 44.6 °F 82% 29.77 in 10.0 mi WSW 6.9 mph - N/A   Overcast
4:13 AM 50.0 °F - 44.6 °F 82% 29.77 in 10.0 mi WSW 5.8 mph - N/A   Overcast
4:33 AM 50.0 °F - 44.6 °F 82% 29.77 in 10.0 mi SW 5.8 mph - N/A   Overcast
4:54 AM 50.0 °F - 44.6 °F 82% 29.78 in 10.0 mi SW 6.9 mph - N/A   Overcast
5:13 AM 50.0 °F - 44.6 °F 82% 29.78 in 10.0 mi SW 9.2 mph - N/A   Overcast
5:33 AM 50.0 °F - 42.8 °F 76% 29.79 in 10.0 mi WSW 8.1 mph - N/A   Overcast
5:54 AM 50.0 °F - 42.8 °F 76% 29.79 in 10.0 mi SW 5.8 mph - N/A   Overcast
6:13 AM 50.0 °F - 42.8 °F 76% 29.79 in 10.0 mi WSW 8.1 mph - N/A   Overcast
6:33 AM 50.0 °F - 42.8 °F 76% 29.80 in 10.0 mi WSW 11.5 mph - N/A   Overcast
6:54 AM 50.0 °F - 42.8 °F 76% 29.80 in 10.0 mi WSW 12.7 mph - N/A   Light Drizzle
7:13 AM 48.2 °F - 42.8 °F 82% 29.82 in 10.0 mi West 11.5 mph 18.4 mph N/A Rain Rain
7:33 AM 48.2 °F - 42.8 °F 82% 29.83 in 10.0 mi WNW 15.0 mph 19.6 mph 0.01 in Rain Rain
7:53 AM 44.6 °F 36.9 °F 37.4 °F 76% 29.83 in 10.0 mi NW 18.4 mph 25.3 mph 0.01 in Rain Light Rain
8:13 AM 44.6 °F 41.4 °F 37.4 °F 76% 29.84 in 10.0 mi NNW 5.8 mph - 0.01 in Rain Rain
8:34 AM 42.8 °F 37.5 °F 37.4 °F 81% 29.84 in 10.0 mi NW 9.2 mph - 0.01 in   Drizzle
8:53 AM 42.8 °F 37.0 °F 39.2 °F 87% 29.85 in 10.0 mi NW 10.4 mph - 0.01 in Rain Light Rain
9:13 AM 42.8 °F 38.6 °F 37.4 °F 81% 29.85 in 10.0 mi WNW 6.9 mph - N/A   Overcast
9:34 AM 42.8 °F 39.3 °F 39.2 °F 87% 29.86 in 10.0 mi West 5.8 mph - N/A   Overcast
9:53 AM 44.6 °F 42.2 °F 39.2 °F 81% 29.86 in 10.0 mi West 4.6 mph - N/A   Overcast
10:13 AM 44.6 °F 40.2 °F 37.4 °F 76% 29.86 in 10.0 mi West 8.1 mph - N/A   Overcast
10:33 AM 46.4 °F 40.7 °F 37.4 °F 71% 29.87 in 10.0 mi WNW 12.7 mph - N/A   Mostly Cloudy
10:53 AM 44.6 °F 36.9 °F 33.8 °F 66% 29.88 in 10.0 mi WNW 18.4 mph 26.5 mph N/A   Clear
11:14 AM 44.6 °F 35.9 °F 33.8 °F 66% 29.88 in 10.0 mi West 23.0 mph 26.5 mph N/A   Clear
11:53 AM 46.4 °F 39.2 °F 32.0 °F 57% 29.87 in 10.0 mi WNW 18.4 mph 24.2 mph N/A   Clear
12:14 PM 46.4 °F 39.2 °F 32.0 °F 57% 29.87 in 10.0 mi WNW 18.4 mph 23.0 mph N/A   Clear
12:33 PM 46.4 °F 39.2 °F 30.2 °F 53% 29.87 in 10.0 mi West 18.4 mph 32.2 mph N/A   Clear
12:53 PM 50.0 °F - 28.4 °F 43% 29.87 in 10.0 mi West 21.9 mph 31.1 mph N/A   Scattered Clouds
1:14 PM 50.0 °F - 26.6 °F 40% 29.87 in 10.0 mi WNW 20.7 mph 33.4 mph N/A   Mostly Cloudy
1:33 PM 50.0 °F - 26.6 °F 40% 29.87 in 10.0 mi West 24.2 mph 32.2 mph N/A   Mostly Cloudy
1:53 PM 50.0 °F - 26.6 °F 40% 29.87 in 10.0 mi WNW 28.8 mph 34.5 mph N/A   Scattered Clouds
2:14 PM 50.0 °F - 26.6 °F 40% 29.87 in 10.0 mi WNW 24.2 mph 34.5 mph N/A   Scattered Clouds
2:33 PM 48.2 °F - 26.6 °F 43% 29.88 in 10.0 mi WNW 26.5 mph 35.7 mph N/A   Scattered Clouds
2:53 PM 48.2 °F - 26.6 °F 43% 29.89 in 10.0 mi NW 26.5 mph 33.4 mph N/A   Mostly Cloudy
3:14 PM 46.4 °F 37.9 °F 26.6 °F 46% 29.90 in 10.0 mi WNW 25.3 mph 31.1 mph N/A   Mostly Cloudy
3:33 PM 46.4 °F 38.3 °F 26.6 °F 46% 29.91 in 10.0 mi WNW 23.0 mph 32.2 mph N/A   Mostly Cloudy
3:53 PM 46.4 °F 37.7 °F 26.6 °F 46% 29.91 in 10.0 mi WNW 26.5 mph 31.1 mph N/A   Overcast
4:14 PM 46.4 °F 38.5 °F 26.6 °F 46% 29.91 in 10.0 mi WNW 21.9 mph 27.6 mph N/A   Overcast
4:33 PM 46.4 °F 39.2 °F 26.6 °F 46% 29.92 in 10.0 mi NW 18.4 mph 26.5 mph N/A   Overcast
4:53 PM 46.4 °F 38.7 °F 26.6 °F 46% 29.93 in 10.0 mi WNW 20.7 mph 29.9 mph N/A   Overcast
5:14 PM 46.4 °F 38.5 °F 28.4 °F 50% 29.94 in 10.0 mi NW 21.9 mph 29.9 mph N/A   Overcast
5:33 PM 44.6 °F 35.5 °F 28.4 °F 53% 29.94 in 10.0 mi NNW 25.3 mph 31.1 mph N/A   Mostly Cloudy
5:54 PM 44.6 °F 35.3 °F 28.4 °F 53% 29.96 in 10.0 mi NW 26.5 mph 32.2 mph N/A   Mostly Cloudy
6:13 PM 44.6 °F 36.4 °F 28.4 °F 53% 29.97 in 10.0 mi NW 20.7 mph 31.1 mph N/A   Overcast
6:33 PM 42.8 °F 35.1 °F 28.4 °F 57% 29.98 in 10.0 mi NW 16.1 mph 23.0 mph N/A   Overcast
6:53 PM 42.8 °F 34.3 °F 28.4 °F 57% 29.99 in 10.0 mi NW 19.6 mph 26.5 mph N/A   Overcast
7:13 PM 42.8 °F 34.8 °F 28.4 °F 57% 30.00 in 10.0 mi NW 17.3 mph 23.0 mph N/A   Overcast
7:34 PM 42.8 °F 35.8 °F 28.4 °F 57% 30.00 in 10.0 mi NW 13.8 mph - N/A   Overcast
7:53 PM 41.0 °F 34.3 °F 26.6 °F 57% 30.01 in 10.0 mi NW 11.5 mph 17.3 mph N/A   Overcast
8:13 PM 41.0 °F 33.1 °F 26.6 °F 57% 30.02 in 10.0 mi NW 15.0 mph 20.7 mph N/A   Overcast
8:33 PM 41.0 °F 33.5 °F 26.6 °F 57% 30.02 in 10.0 mi NW 13.8 mph - N/A   Overcast
8:53 PM 39.2 °F 33.6 °F 26.6 °F 61% 30.03 in 10.0 mi NW 8.1 mph 16.1 mph N/A   Scattered Clouds
9:14 PM 39.2 °F 33.6 °F 26.6 °F 61% 30.04 in 10.0 mi NW 8.1 mph - N/A   Mostly Cloudy
9:33 PM 35.6 °F 29.9 °F 26.6 °F 70% 30.04 in 10.0 mi NW 6.9 mph - N/A   Scattered Clouds
9:53 PM 35.6 °F 29.9 °F 26.6 °F 70% 30.04 in 10.0 mi NW 6.9 mph - N/A   Clear
10:14 PM 35.6 °F 30.7 °F 26.6 °F 70% 30.04 in 10.0 mi WNW 5.8 mph - N/A   Scattered Clouds
10:33 PM 32.0 °F 26.4 °F 24.8 °F 75% 30.04 in 10.0 mi WNW 5.8 mph - N/A   Clear
10:54 PM 32.0 °F 26.4 °F 26.6 °F 80% 30.05 in 10.0 mi West 5.8 mph - N/A   Scattered Clouds
11:13 PM 32.0 °F 25.6 °F 24.8 °F 75% 30.06 in 10.0 mi West 6.9 mph - N/A   Scattered Clouds
11:33 PM 33.8 °F 28.6 °F 26.6 °F 75% 30.06 in 10.0 mi West 5.8 mph - N/A   Mostly Cloudy
11:54 PM 33.8 °F 27.7 °F 24.8 °F 70% 30.06 in 10.0 mi West 6.9 mph - N/A   Scattered Clouds